Cody, WY

6:44 PM MDT on May 22, 2017 (GMT -0600)
Yellowstone Regional

Weather History for KCOD - February, 2011

Change the Weather History Date:

Sunday, February 27, 2011

  Actual Average Record
Temperature  
Mean Temperature 24 °F -  
Max Temperature 35 °F 44 °F 70 °F (1932)
Min Temperature 12 °F 22 °F -15 °F (1962)
Degree Days  
Heating Degree Days 42    
Moisture  
Dew Point 1 °F    
Average Humidity 34    
Maximum Humidity 46    
Minimum Humidity 22    
Precipitation  
Precipitation 0.00 in - - ()
Sea Level Pressure  
Sea Level Pressure 29.55 in    
Wind  
Wind Speed 8 mph (West)    
Max Wind Speed 21 mph    
Max Gust Speed 29 mph    
Visibility 10 miles    
Events      
Averages and records for this station are not official NWS values.
T = Trace of Precipitation, MM = Missing Value Source: NWS Daily Summary

Daily Weather History Graph

Daily Weather History Graph

Search for Another Location

Airport or City:

Trip Planner

Search our weather history database for the weather conditions in past years. The results will help you decide how hot, cold, wet, or windy it might be!

Date:

Astronomy

Feb. 27, 2011 Rise Set
Actual Time 6:57 AM MST 6:01 PM MST
Civil Twilight 6:27 AM MST 6:30 PM MST
Nautical Twilight 5:54 AM MST 7:04 PM MST
Astronomical Twilight 5:20 AM MST 7:37 PM MST
Moon 4:00 AM MST (2/27) 1:09 PM MST (2/27)
Length of Visible Light 12h 02m
Length of Day
11h 03m
Waning Crescent, 22% of the Moon is Illuminated
Feb 27
Waning Crescent
Mar 4
New
Mar 12
First Quarter
Mar 19
Full
Mar 26
Last Quarter

Hourly Weather History & Observations

Time (MST) Temp. Windchill Dew Point Humidity Pressure Visibility Wind Dir Wind Speed Gust Speed Precip Events Conditions
12:15 AM 24.8 °F 14.6 °F -0.4 °F 34% 29.41 in 10.0 mi WNW 10.4 mph - N/A   Partly Cloudy
12:35 AM 24.8 °F 14.6 °F -0.4 °F 34% 29.42 in 10.0 mi WNW 10.4 mph - N/A   Partly Cloudy
12:55 AM 24.8 °F 14.6 °F -0.4 °F 34% 29.43 in 10.0 mi NW 10.4 mph - N/A   Mostly Cloudy
1:35 AM 24.8 °F 14.6 °F -0.4 °F 34% 29.43 in 10.0 mi WNW 10.4 mph - N/A   Scattered Clouds
1:55 AM 24.8 °F 14.0 °F 1.4 °F 36% 29.43 in 10.0 mi WNW 11.5 mph 16.1 mph N/A   Mostly Cloudy
2:35 AM 23.0 °F 14.7 °F 1.4 °F 39% 29.44 in 10.0 mi WNW 6.9 mph - N/A   Overcast
2:55 AM 23.0 °F 15.8 °F -0.4 °F 36% 29.44 in 10.0 mi NNW 5.8 mph - N/A   Mostly Cloudy
3:15 AM 21.2 °F - -0.4 °F 39% 29.44 in 10.0 mi Calm Calm - N/A   Mostly Cloudy
3:35 AM 17.6 °F 8.2 °F -2.2 °F 42% 29.45 in 10.0 mi SSE 6.9 mph - N/A   Overcast
3:55 AM 15.8 °F 8.6 °F -2.2 °F 45% 29.46 in 10.0 mi SE 4.6 mph - N/A   Scattered Clouds
4:15 AM 17.6 °F 12.3 °F -0.4 °F 45% 29.47 in 10.0 mi SSE 3.5 mph - N/A   Clear
4:35 AM 19.4 °F - -0.4 °F 42% 29.47 in 10.0 mi Calm Calm - N/A   Partly Cloudy
4:55 AM 12.2 °F 4.3 °F -7.6 °F 41% 29.47 in 10.0 mi SW 4.6 mph - N/A   Scattered Clouds
5:15 AM 19.4 °F 12.8 °F -0.4 °F 42% 29.47 in 10.0 mi West 4.6 mph - N/A   Overcast
5:35 AM 21.2 °F 11.7 °F 1.4 °F 42% 29.48 in 10.0 mi NW 8.1 mph - N/A   Overcast
5:55 AM 21.2 °F 10.9 °F 3.2 °F 46% 29.49 in 10.0 mi NNW 9.2 mph - N/A   Overcast
6:15 AM 21.2 °F 16.4 °F 3.2 °F 46% 29.49 in 10.0 mi WNW 3.5 mph - N/A   Overcast
6:35 AM 21.2 °F 16.4 °F 3.2 °F 46% 29.49 in 10.0 mi NNW 3.5 mph - N/A   Overcast
6:55 AM 21.2 °F 13.6 °F 3.2 °F 46% 29.51 in 10.0 mi West 5.8 mph - N/A   Overcast
7:15 AM 23.0 °F 13.9 °F 1.4 °F 39% 29.51 in 10.0 mi WSW 8.1 mph - N/A   Mostly Cloudy
7:35 AM 21.2 °F 10.1 °F 1.4 °F 42% 29.51 in 10.0 mi WSW 10.4 mph - N/A   Partly Cloudy
7:55 AM 24.8 °F 17.9 °F 1.4 °F 36% 29.52 in 10.0 mi West 5.8 mph 19.6 mph N/A   Clear
8:15 AM 19.4 °F 10.4 °F -0.4 °F 42% 29.53 in 10.0 mi NNE 6.9 mph - N/A   Clear
8:35 AM 21.2 °F 14.9 °F 1.4 °F 42% 29.55 in 10.0 mi ENE 4.6 mph - N/A   Clear
8:55 AM 24.8 °F 17.9 °F 1.4 °F 36% 29.56 in 10.0 mi NNW 5.8 mph - N/A   Clear
9:15 AM 26.6 °F - 3.2 °F 37% 29.56 in 10.0 mi Calm Calm - N/A   Clear
9:55 AM 28.4 °F 22.2 °F 3.2 °F 34% 29.57 in 10.0 mi West 5.8 mph - N/A   Clear
10:15 AM 28.4 °F 23.3 °F 3.2 °F 34% 29.57 in 10.0 mi West 4.6 mph - N/A   Clear
10:35 AM 30.2 °F 24.3 °F 3.2 °F 32% 29.58 in 10.0 mi West 5.8 mph - N/A   Clear
10:55 AM 30.2 °F 21.3 °F 1.4 °F 29% 29.58 in 10.0 mi WNW 10.4 mph 21.9 mph N/A   Clear
11:15 AM 30.2 °F 21.3 °F 1.4 °F 29% 29.58 in 10.0 mi West 10.4 mph - N/A   Clear
11:35 AM 30.2 °F 21.3 °F 3.2 °F 32% 29.58 in 10.0 mi West 10.4 mph 20.7 mph N/A   Clear
11:55 AM 32.0 °F 25.6 °F 1.4 °F 27% 29.59 in 10.0 mi WSW 6.9 mph - N/A   Clear
12:15 PM 33.8 °F 27.7 °F 3.2 °F 28% 29.59 in 10.0 mi WSW 6.9 mph 16.1 mph N/A   Clear
12:35 PM 32.0 °F 24.8 °F 3.2 °F 30% 29.59 in 10.0 mi West 8.1 mph - N/A   Clear
12:55 PM 33.8 °F 27.7 °F 3.2 °F 28% 29.58 in 10.0 mi NW 6.9 mph - N/A   Clear
1:15 PM 33.8 °F 27.7 °F 3.2 °F 28% 29.57 in 10.0 mi North 6.9 mph - N/A   Clear
1:35 PM 33.8 °F 25.8 °F 1.4 °F 25% 29.57 in 10.0 mi West 10.4 mph 17.3 mph N/A   Clear
1:55 PM 33.8 °F 24.3 °F 3.2 °F 28% 29.57 in 10.0 mi WSW 13.8 mph 24.2 mph N/A   Clear
2:15 PM 33.8 °F 23.9 °F 1.4 °F 25% 29.58 in 10.0 mi West 15.0 mph 23.0 mph N/A   Clear
2:35 PM 35.6 °F 25.9 °F 1.4 °F 24% 29.57 in 10.0 mi WSW 16.1 mph 21.9 mph N/A   Clear
2:55 PM 35.6 °F 26.2 °F 1.4 °F 24% 29.58 in 10.0 mi West 15.0 mph 26.5 mph N/A   Clear
3:15 PM 35.6 °F 25.5 °F 1.4 °F 24% 29.59 in 10.0 mi WSW 17.3 mph 25.3 mph N/A   Clear
3:35 PM 35.6 °F 27.1 °F 1.4 °F 24% 29.60 in 10.0 mi West 12.7 mph 20.7 mph N/A   Clear
3:55 PM 35.6 °F 24.5 °F -0.4 °F 22% 29.61 in 10.0 mi WSW 20.7 mph 28.8 mph N/A   Clear
4:15 PM 33.8 °F 23.9 °F -0.4 °F 23% 29.62 in 10.0 mi WSW 15.0 mph 25.3 mph N/A   Clear
4:35 PM 33.8 °F 23.9 °F -0.4 °F 23% 29.62 in 10.0 mi WSW 15.0 mph 25.3 mph N/A   Clear
4:55 PM 33.8 °F 27.0 °F 1.4 °F 25% 29.63 in 10.0 mi West 8.1 mph 23.0 mph N/A   Clear
5:15 PM 32.0 °F 27.5 °F 6.8 °F 35% 29.64 in 10.0 mi NW 4.6 mph 20.7 mph N/A   Clear
5:35 PM 32.0 °F 23.6 °F 3.2 °F 30% 29.65 in 10.0 mi West 10.4 mph 17.3 mph N/A   Clear
5:55 PM 30.2 °F - 5.0 °F 34% 29.67 in 10.0 mi Calm Calm - N/A   Clear
6:15 PM 28.4 °F 21.2 °F 3.2 °F 34% 29.68 in 10.0 mi WSW 6.9 mph - N/A   Clear
6:35 PM 26.6 °F 20.0 °F 6.8 °F 43% 29.70 in 10.0 mi West 5.8 mph - N/A   Clear
6:55 PM 28.4 °F 20.4 °F 3.2 °F 34% 29.70 in 10.0 mi West 8.1 mph 21.9 mph N/A   Clear
7:15 PM 28.4 °F 19.1 °F 1.4 °F 31% 29.71 in 10.0 mi West 10.4 mph 16.1 mph N/A   Clear
7:35 PM 28.4 °F 17.0 °F 1.4 °F 31% 29.71 in 10.0 mi West 15.0 mph 24.2 mph N/A   Clear
7:55 PM 28.4 °F 17.0 °F 1.4 °F 31% 29.72 in 10.0 mi West 15.0 mph 26.5 mph N/A   Clear
8:15 PM 28.4 °F 17.0 °F 1.4 °F 31% 29.73 in 10.0 mi West 15.0 mph 27.6 mph N/A   Clear
8:35 PM 26.6 °F 18.2 °F 1.4 °F 34% 29.74 in 10.0 mi West 8.1 mph 25.3 mph N/A   Clear
8:55 PM 26.6 °F 16.8 °F 1.4 °F 34% 29.76 in 10.0 mi WNW 10.4 mph 26.5 mph N/A   Clear
9:15 PM 26.6 °F 15.7 °F 1.4 °F 34% 29.77 in 10.0 mi West 12.7 mph 17.3 mph N/A   Clear
9:35 PM 24.8 °F 14.6 °F 1.4 °F 36% 29.77 in 10.0 mi WNW 10.4 mph 19.6 mph N/A   Clear
9:55 PM 24.8 °F 11.9 °F 1.4 °F 36% 29.77 in 10.0 mi West 16.1 mph 27.6 mph N/A   Clear
10:15 PM 24.8 °F 11.9 °F 1.4 °F 36% 29.77 in 10.0 mi West 16.1 mph 24.2 mph N/A   Clear
10:35 PM 24.8 °F 12.4 °F 1.4 °F 36% 29.77 in 10.0 mi West 15.0 mph 26.5 mph N/A   Clear
10:55 PM 26.6 °F 15.2 °F 1.4 °F 34% 29.77 in 10.0 mi WSW 13.8 mph 24.2 mph N/A   Clear
11:15 PM 26.6 °F 13.8 °F 1.4 °F 34% 29.77 in 10.0 mi West 17.3 mph 26.5 mph N/A   Clear
11:35 PM 26.6 °F 14.3 °F 1.4 °F 34% 29.78 in 10.0 mi WSW 16.1 mph 26.5 mph N/A   Clear
11:55 PM 26.6 °F 14.7 °F 1.4 °F 34% 29.78 in 10.0 mi WSW 15.0 mph 25.3 mph N/A   Clear